| time (UTC) | temp F | wind direction | speed knots | gust knots | rain 1hr in | rain 24hr in | rain mn in | humidity % | barometer mb |
| 20260507075209 | 48 | 46 | 0.9 | 2.6 | 0.00 | 1.49 | 1.49 | 94 | 1011.1 |
| 20260507073207 | 48 | 20 | 1.7 | 5.2 | 0.00 | 1.49 | 1.49 | 94 | 1010.9 |
| 20260507072211 | 48 | 38 | 1.7 | 5.2 | 0.00 | 1.49 | 1.49 | 94 | 1010.8 |
| 20260507071212 | 48 | 56 | 1.7 | 3.5 | 0.00 | 1.49 | 1.49 | 94 | 1010.7 |
| 20260507070215 | 48 | 29 | 2.6 | 7.0 | 0.00 | 1.49 | 1.49 | 94 | 1010.6 |
| 20260507065213 | 48 | 28 | 1.7 | 5.2 | 0.00 | 1.49 | 1.49 | 94 | 1010.5 |
| 20260507064206 | 48 | 48 | 0.9 | 2.6 | 0.00 | 1.49 | 1.49 | 94 | 1010.5 |
| 20260507063210 | 48 | 39 | 1.7 | 5.2 | 0.00 | 1.49 | 1.49 | 94 | 1010.4 |
| 20260507062215 | 48 | 55 | 1.7 | 5.2 | 0.00 | 1.49 | 1.49 | 94 | 1010.4 |
| 20260507061215 | 48 | 71 | 1.7 | 5.2 | 0.00 | 1.49 | 1.49 | 94 | 1010.3 |
| 20260507060211 | 48 | 73 | 1.7 | 5.2 | 0.00 | 1.49 | 1.49 | 94 | 1010.2 |
| 20260507055213 | 48 | 84 | 0.9 | 2.6 | 0.01 | 1.49 | 1.49 | 94 | 1010.1 |
| 20260507053210 | 48 | 70 | 1.7 | 5.2 | 0.02 | 1.49 | 1.49 | 95 | 1009.7 |
| 20260507052214 | 48 | 69 | 1.7 | 3.5 | 0.04 | 1.49 | 1.49 | 95 | 1009.4 |
| 20260507051217 | 48 | 70 | 4.3 | 9.6 | 0.07 | 1.48 | 1.48 | 95 | 1009.6 |
| 20260507045210 | 48 | 45 | 1.7 | 5.2 | 0.09 | 1.48 | 1.48 | 95 | 1009.4 |
| 20260507044214 | 48 | 70 | 1.7 | 5.2 | 0.08 | 1.47 | 1.47 | 94 | 1009.4 |
| 20260507042211 | 48 | 45 | 0.9 | 2.6 | 0.06 | 1.44 | 1.44 | 94 | 1009.4 |
| 20260507041214 | 48 | 33 | 2.6 | 5.2 | 0.03 | 1.42 | 1.42 | 94 | 1009.2 |
| 20260507040207 | 48 | 358 | 0.0 | 2.6 | 0.03 | 1.41 | 1.41 | 94 | 1009.1 |
| 20260507035210 | 48 | 32 | 0.9 | 5.2 | 0.01 | 1.39 | 1.39 | 94 | 1009.0 |
| 20260507034213 | 48 | 35 | 1.7 | 5.2 | 0.01 | 1.39 | 1.39 | 94 | 1009.0 |
| 20260507033211 | 48 | 35 | 1.7 | 5.2 | 0.01 | 1.39 | 1.39 | 94 | 1008.9 |
| 20260507032212 | 48 | 22 | 1.7 | 5.2 | 0.01 | 1.39 | 1.39 | 94 | 1009.0 |
| 20260507030206 | 48 | 16 | 2.6 | 7.8 | 0.01 | 1.39 | 1.39 | 94 | 1008.9 |
| 20260507025210 | 48 | 17 | 3.5 | 7.0 | 0.01 | 1.38 | 1.38 | 94 | 1008.9 |
| 20260507024218 | 48 | 4 | 2.6 | 6.1 | 0.02 | 1.38 | 1.38 | 94 | 1008.8 |
| 20260507023207 | 49 | 340 | 3.5 | 7.0 | 0.06 | 1.38 | 1.38 | 94 | 1008.8 |
| 20260507022210 | 49 | 352 | 3.5 | 9.6 | 0.13 | 1.38 | 1.38 | 94 | 1008.6 |
| 20260507021213 | 49 | 4 | 3.5 | 7.0 | 0.17 | 1.38 | 1.38 | 94 | 1008.5 |
| 20260507020207 | 50 | 5 | 4.3 | 7.8 | 0.22 | 1.38 | 1.38 | 94 | 1008.5 |
| 20260507015210 | 50 | 14 | 4.3 | 11.3 | 0.26 | 1.37 | 1.37 | 94 | 1008.4 |
| 20260507014213 | 50 | 349 | 5.2 | 13.0 | 0.28 | 1.35 | 1.35 | 94 | 1008.1 |
| 20260507012210 | 50 | 310 | 1.7 | 3.5 | 0.29 | 1.25 | 1.25 | 93 | 1008.6 |
| 20260507010207 | 51 | 357 | 2.6 | 5.2 | 0.39 | 1.17 | 1.16 | 93 | 1007.9 |
| 20260507005210 | 51 | 14 | 2.6 | 5.2 | 0.41 | 1.12 | 1.12 | 93 | 1007.8 |
| 20260507004214 | 51 | 20 | 2.6 | 5.2 | 0.45 | 1.10 | 1.08 | 93 | 1007.7 |
| 20260507003207 | 51 | 2 | 1.7 | 6.1 | 0.44 | 1.02 | 1.00 | 93 | 1007.6 |
| 20260507002213 | 51 | 27 | 1.7 | 6.1 | 0.49 | 1.00 | 0.96 | 93 | 1007.6 |
| 20260507001216 | 51 | 23 | 3.5 | 7.8 | 0.46 | 0.91 | 0.85 | 93 | 1007.6 |
| 20260507000207 | 51 | 21 | 1.7 | 7.0 | 0.49 | 0.85 | 0.78 | 93 | 1007.7 |
| 20260506235210 | 51 | 45 | 2.6 | 6.1 | 0.55 | 0.79 | 0.71 | 93 | 1007.4 |
| 20260506234213 | 52 | 48 | 2.6 | 7.8 | 0.52 | 0.70 | 0.63 | 92 | 1007.5 |
| 20260506233211 | 52 | 41 | 2.6 | 6.1 | 0.47 | 0.63 | 0.55 | 92 | 1007.6 |
| 20260506232209 | 52 | 43 | 3.5 | 8.7 | 0.41 | 0.57 | 0.46 | 92 | 1007.6 |
| 20260506230216 | 52 | 36 | 2.6 | 7.0 | 0.28 | 0.67 | 0.28 | 90 | 1007.7 |
| 20260506225209 | 53 | 59 | 1.7 | 6.1 | 0.17 | 0.57 | 0.17 | 90 | 1007.7 |
| 20260506224212 | 53 | 36 | 1.7 | 6.1 | 0.11 | 0.52 | 0.11 | 90 | 1007.7 |
| 20260506222214 | 53 | 22 | 3.5 | 7.0 | 0.06 | 0.47 | 0.06 | 89 | 1007.7 |
| 20260506221211 | 54 | 353 | 3.5 | 7.0 | 0.02 | 0.44 | 0.02 | 88 | 1007.6 |
| 20260506220214 | 54 | 356 | 3.5 | 7.0 | 0.00 | 0.41 | 0.41 | 88 | 1007.5 |
| 20260506215208 | 54 | 6 | 3.5 | 7.8 | 0.00 | 0.41 | 0.41 | 88 | 1007.6 |
| 20260506214210 | 54 | 43 | 2.6 | 7.8 | 0.00 | 0.41 | 0.41 | 87 | 1007.4 |
| 20260506213214 | 55 | 51 | 2.6 | 11.3 | 0.00 | 0.41 | 0.41 | 87 | 1007.4 |
| 20260506212212 | 55 | 41 | 2.6 | 7.0 | 0.00 | 0.41 | 0.41 | 86 | 1007.4 |
| 20260506211211 | 55 | 26 | 1.7 | 6.1 | 0.00 | 0.41 | 0.41 | 86 | 1007.3 |
| 20260506210213 | 55 | 42 | 1.7 | 6.1 | 0.00 | 0.41 | 0.41 | 86 | 1007.3 |
| 20260506205207 | 55 | 41 | 4.3 | 8.7 | 0.00 | 0.41 | 0.41 | 86 | 1007.3 |
| 20260506204209 | 55 | 43 | 3.5 | 7.0 | 0.00 | 0.41 | 0.41 | 86 | 1007.5 |
| 20260506203213 | 56 | 40 | 2.6 | 6.1 | 0.00 | 0.41 | 0.41 | 86 | 1007.4 |
| 20260506202206 | 56 | 58 | 4.3 | 9.6 | 0.00 | 0.41 | 0.41 | 86 | 1007.3 |
| 20260506201209 | 56 | 63 | 2.6 | 6.1 | 0.00 | 0.41 | 0.41 | 85 | 1007.3 |
| 20260506200212 | 56 | 66 | 2.6 | 7.0 | 0.00 | 0.41 | 0.41 | 84 | 1007.2 |
| 20260506195215 | 56 | 60 | 1.7 | 6.1 | 0.00 | 0.41 | 0.41 | 84 | 1007.1 |
| 20260506194208 | 57 | 44 | 3.5 | 9.6 | 0.00 | 0.41 | 0.41 | 83 | 1006.9 |
| 20260506193211 | 57 | 43 | 3.5 | 7.8 | 0.00 | 0.41 | 0.41 | 82 | 1006.9 |
| 20260506192216 | 58 | 47 | 1.7 | 7.0 | 0.00 | 0.41 | 0.41 | 81 | 1007.0 |
| 20260506190210 | 59 | 9 | 3.5 | 7.0 | 0.00 | 0.41 | 0.41 | 79 | 1006.7 |
| 20260506185220 | 59 | 6 | 4.3 | 7.8 | 0.00 | 0.41 | 0.41 | 78 | 1006.7 |
| 20260506184206 | 60 | 5 | 5.2 | 9.6 | 0.00 | 0.41 | 0.41 | 77 | 1006.5 |
| 20260506183212 | 61 | 19 | 3.5 | 9.6 | 0.00 | 0.41 | 0.41 | 76 | 1006.4 |
| 20260506182213 | 61 | 10 | 3.5 | 9.6 | 0.00 | 0.41 | 0.41 | 75 | 1006.3 |
| 20260506181206 | 62 | 13 | 4.3 | 8.7 | 0.00 | 0.41 | 0.41 | 75 | 1006.3 |
| 20260506180210 | 62 | 12 | 5.2 | 9.6 | 0.00 | 0.41 | 0.41 | 74 | 1006.0 |
| 20260506175215 | 63 | 351 | 3.5 | 6.1 | 0.00 | 0.41 | 0.41 | 73 | 1006.0 |
| 20260506174206 | 63 | 3 | 3.5 | 7.0 | 0.00 | 0.41 | 0.41 | 71 | 1005.7 |
| 20260506173209 | 64 | 19 | 2.6 | 7.0 | 0.00 | 0.41 | 0.41 | 70 | 1005.6 |
| 20260506172212 | 64 | 10 | 5.2 | 8.7 | 0.00 | 0.41 | 0.41 | 69 | 1005.6 |
| 20260506170208 | 65 | 6 | 3.5 | 6.1 | 0.00 | 0.41 | 0.41 | 68 | 1005.8 |
| 20260506165212 | 65 | 4 | 3.5 | 7.0 | 0.00 | 0.41 | 0.41 | 67 | 1005.6 |
| 20260506164215 | 66 | 347 | 3.5 | 7.8 | 0.00 | 0.41 | 0.41 | 66 | 1005.6 |
| 20260506163208 | 67 | 0 | 3.5 | 7.0 | 0.00 | 0.41 | 0.41 | 64 | 1005.6 |
| 20260506162212 | 67 | 345 | 2.6 | 6.1 | 0.00 | 0.41 | 0.41 | 62 | 1005.6 |
| 20260506161215 | 68 | 319 | 2.6 | 6.1 | 0.00 | 0.41 | 0.41 | 61 | 1005.7 |
| 20260506160208 | 68 | 341 | 0.9 | 3.5 | 0.00 | 0.41 | 0.41 | 60 | 1005.7 |
| 20260506155211 | 69 | 328 | 0.9 | 3.5 | 0.00 | 0.41 | 0.41 | 58 | 1005.8 |
| 20260506154215 | 70 | 314 | 0.9 | 2.6 | 0.00 | 0.41 | 0.41 | 58 | 1005.8 |
| 20260506153208 | 71 | 5 | 2.6 | 5.2 | 0.00 | 0.41 | 0.41 | 56 | 1005.9 |
| 20260506152211 | 72 | 331 | 2.6 | 6.1 | 0.00 | 0.41 | 0.41 | 56 | 1005.9 |
| 20260506151214 | 72 | 326 | 3.5 | 7.8 | 0.00 | 0.41 | 0.41 | 56 | 1006.0 |
| 20260506150208 | 72 | 329 | 1.7 | 3.5 | 0.00 | 0.41 | 0.41 | 55 | 1005.9 |
| 20260506145211 | 73 | 318 | 3.5 | 8.7 | 0.00 | 0.41 | 0.41 | 54 | 1006.0 |
| 20260506144214 | 72 | 267 | 1.7 | 5.2 | 0.00 | 0.41 | 0.41 | 54 | 1005.9 |
| 20260506143207 | 72 | 281 | 0.9 | 2.6 | 0.00 | 0.41 | 0.41 | 55 | 1006.1 |
| 20260506140207 | 71 | 287 | 4.3 | 7.8 | 0.00 | 0.41 | 0.41 | 57 | 1006.2 |
| 20260506135210 | 70 | 334 | 4.3 | 7.8 | 0.00 | 0.41 | 0.41 | 58 | 1006.1 |
| 20260506134214 | 70 | 294 | 3.5 | 7.8 | 0.00 | 0.41 | 0.41 | 58 | 1006.3 |
| 20260506133207 | 71 | 308 | 4.3 | 11.3 | 0.00 | 0.41 | 0.41 | 56 | 1006.2 |
| 20260506132213 | 71 | 248 | 5.2 | 12.2 | 0.00 | 0.41 | 0.41 | 54 | 1006.2 |
| 20260506130207 | 71 | 241 | 6.1 | 13.9 | 0.00 | 0.41 | 0.41 | 56 | 1006.2 |
| 20260506125211 | 70 | 242 | 5.2 | 11.3 | 0.00 | 0.41 | 0.41 | 57 | 1006.2 |
| 20260506124219 | 70 | 239 | 5.2 | 9.6 | 0.00 | 0.41 | 0.41 | 56 | 1006.4 |
| 20260506123209 | 70 | 260 | 3.5 | 9.6 | 0.00 | 0.41 | 0.41 | 62 | 1006.4 |
| 20260506122210 | 68 | 240 | 4.3 | 9.6 | 0.00 | 0.41 | 0.41 | 63 | 1006.4 |
| 20260506121213 | 66 | 239 | 3.5 | 9.6 | 0.00 | 0.41 | 0.41 | 64 | 1006.4 |
| 20260506120209 | 66 | 253 | 3.5 | 7.0 | 0.00 | 0.41 | 0.41 | 64 | 1006.4 |
| 20260506115210 | 66 | 273 | 4.3 | 9.6 | 0.00 | 0.41 | 0.41 | 65 | 1006.5 |
| 20260506114213 | 65 | 274 | 4.3 | 8.7 | 0.00 | 0.41 | 0.41 | 63 | 1006.4 |
| 20260506113206 | 66 | 261 | 6.1 | 13.9 | 0.00 | 0.41 | 0.41 | 63 | 1006.4 |
| 20260506111213 | 67 | 264 | 7.0 | 13.0 | 0.00 | 0.41 | 0.41 | 64 | 1006.3 |
| 20260506105209 | 68 | 245 | 6.1 | 15.6 | 0.00 | 0.41 | 0.41 | 63 | 1006.3 |
| 20260506104212 | 68 | 243 | 7.0 | 12.2 | 0.00 | 0.41 | 0.41 | 63 | 1006.3 |
| 20260506103216 | 67 | 220 | 5.2 | 11.3 | 0.00 | 0.41 | 0.41 | 67 | 1006.3 |
| 20260506102208 | 66 | 253 | 6.1 | 13.0 | 0.00 | 0.41 | 0.41 | 67 | 1006.4 |
| 20260506101212 | 66 | 226 | 5.2 | 13.9 | 0.00 | 0.41 | 0.41 | 68 | 1006.4 |
| 20260506095208 | 65 | 236 | 6.1 | 15.6 | 0.00 | 0.41 | 0.41 | 71 | 1006.3 |
| 20260506094211 | 64 | 223 | 6.1 | 18.2 | 0.00 | 0.41 | 0.41 | 71 | 1006.2 |
| 20260506092213 | 66 | 216 | 4.3 | 9.6 | 0.00 | 0.41 | 0.41 | 67 | 1006.0 |
| 20260506091213 | 66 | 240 | 5.2 | 19.1 | 0.00 | 0.41 | 0.41 | 67 | 1005.9 |
| 20260506090214 | 65 | 238 | 6.1 | 14.8 | 0.00 | 0.41 | 0.41 | 69 | 1005.9 |
| 20260506085207 | 66 | 238 | 4.3 | 11.3 | 0.00 | 0.41 | 0.41 | 69 | 1005.8 |
| 20260506084210 | 66 | 248 | 4.3 | 13.0 | 0.00 | 0.41 | 0.41 | 70 | 1005.7 |
| 20260506083214 | 66 | 228 | 5.2 | 13.0 | 0.00 | 0.41 | 0.41 | 71 | 1005.6 |
| 20260506082206 | 65 | 243 | 5.2 | 14.8 | 0.00 | 0.41 | 0.41 | 72 | 1005.4 |
| 20260506081210 | 64 | 239 | 4.3 | 9.6 | 0.00 | 0.41 | 0.41 | 73 | 1005.4 |
| 20260506080213 | 64 | 245 | 4.3 | 12.2 | 0.00 | 0.41 | 0.41 | 75 | 1005.6 |